Content
SEND FEEDBACK

Daily
Averages
Monthly
Summary
United States of America

LITTLE MOUNTAIN, SOUTH CAROLINA


Home > North America > United States > South Carolina
Elevation: 556 feet     Latitude: 34 12N     Longitude: 081 25W

WEATHER
 
SELECT A DAY
Number of Records: 134,898;   Date Range: 12/16/08 - 10/1/14
 
SHARE

PRINT THIS DATA

[ ← Previous Day ]
WEATHER ALMANAC - JANUARY 31, 2013
[ Next Day → ]
[ °C ]   °F
Weather ElementAverageHighLow
Temperature44.5 °F51.8 °F (12:35 am)37.4 °F (7:15 am)
Dewpoint28.5 °F46.4 °F (12:35 am)21.2 °F (5:15 pm)
Humidity55.3 %87 % (12:55 am)32 % (5:15 pm)
Barometer29.98 in30.15 in (10:55 pm)29.69 in (12:35 am)
Wind Speed15.2 mph27.6 mph (3:15 am)
Wind Gust39.1 mph (3:15 am)
Weather ElementAverage
Visibility10 mi
Wind DirectionWSW (254.3 °)

Weather ElementTotal
Precipitation---
Heating Degree Days20.4 (Base 65)
Averaged from 68 records on January 31, 2013
WEATHER CONDITIONS BREAKOUT
WIND DIRECTION BREAKOUT
WEATHER BY HOUR - JANUARY 31, 2013
[ °C ]   °F
Local TimeTemperatureDewpointHumidityBarometerVisibilityWind DirectionWind SpeedGust SpeedPrecipitationEventsConditions
12:35 AM51.8 °F46.4 °F82 %29.69 in10.0 miSW (230°)20.7 mph27.6 mphOvercast
12:55 AM50.0 °F46.4 °F87 %29.70 in10.0 miWSW (240°)19.6 mph27.6 mphOvercast
1:15 AM50.0 °F46.4 °F87 %29.70 in10.0 miWSW (240°)15.0 mph35.7 mphOvercast
1:55 AM48.2 °F41.0 °F76 %29.73 in10.0 miWSW (250°)19.6 mph33.4 mphScattered Clouds
2:15 AM46.4 °F39.2 °F76 %29.75 in10.0 miWSW (250°)23.0 mph36.8 mphClear
2:35 AM46.4 °F39.2 °F76 %29.76 in10.0 miWSW (250°)15.0 mph33.4 mphScattered Clouds
2:55 AM46.4 °F37.4 °F71 %29.78 in10.0 miWest (260°)26.5 mph35.7 mphOvercast
3:15 AM44.6 °F33.8 °F66 %29.79 in10.0 miWSW (250°)27.6 mph39.1 mphMostly Cloudy
3:35 AM44.6 °F32.0 °F61 %29.80 in10.0 miWSW (250°)18.4 mph34.5 mphScattered Clouds
3:55 AM44.6 °F32.0 °F61 %29.81 in10.0 miWSW (250°)19.6 mph32.2 mphClear
4:15 AM42.8 °F32.0 °F66 %29.82 in10.0 miWSW (250°)24.2 mph32.2 mphClear
4:35 AM42.8 °F32.0 °F66 %29.83 in10.0 miWest (260°)20.7 mph26.5 mphClear
4:55 AM42.8 °F30.2 °F61 %29.84 in10.0 miWest (260°)20.7 mph31.1 mphClear
5:15 AM42.8 °F30.2 °F61 %29.85 in10.0 miWest (260°)17.3 mph28.8 mphClear
5:35 AM41.0 °F30.2 °F65 %29.86 in10.0 miWest (260°)18.4 mph26.5 mphClear
5:55 AM41.0 °F30.2 °F65 %29.87 in10.0 miWest (260°)13.8 mph26.5 mphClear
6:15 AM41.0 °F30.2 °F65 %29.89 in10.0 miWest (260°)15.0 mph20.7 mphClear
6:35 AM39.2 °F30.2 °F70 %29.91 in10.0 miWSW (250°)12.7 mph16.1 mphClear
6:55 AM39.2 °F30.2 °F70 %29.93 in10.0 miWSW (250°)10.4 mph17.3 mphClear
7:15 AM37.4 °F30.2 °F75 %29.94 in10.0 miWest (260°)11.5 mphClear
7:35 AM37.4 °F30.2 °F75 %29.95 in10.0 miWest (260°)13.8 mph20.7 mphClear
7:55 AM37.4 °F28.4 °F70 %29.96 in10.0 miWest (260°)16.1 mph24.2 mphClear
8:15 AM37.4 °F28.4 °F70 %29.97 in10.0 miWest (270°)11.5 mph20.7 mphClear
8:35 AM39.2 °F28.4 °F65 %29.99 in10.0 miWest (260°)11.5 mph21.9 mphClear
8:55 AM41.0 °F28.4 °F61 %29.99 in10.0 miWest (270°)17.3 mph20.7 mphClear
9:15 AM41.0 °F28.4 °F61 %30.00 in10.0 miWest (270°)16.1 mph25.3 mphClear
9:35 AM42.8 °F28.4 °F57 %30.01 in10.0 miWest (260°)18.4 mph21.9 mphClear
9:55 AM42.8 °F26.6 °F53 %30.02 in10.0 miWest (260°)19.6 mph24.2 mphClear
10:15 AM42.8 °F26.6 °F53 %30.03 in10.0 miWest (280°)19.6 mph27.6 mphClear
10:35 AM44.6 °F26.6 °F49 %30.02 in10.0 miWNW (290°)12.7 mph21.9 mphClear
10:55 AM44.6 °F26.6 °F49 %30.03 in10.0 miWest (260°)18.4 mph23.0 mphClear
11:15 AM46.4 °F26.6 °F46 %30.02 in10.0 miWest (280°)9.2 mph20.7 mphClear
11:35 AM46.4 °F24.8 °F43 %30.02 in10.0 miWest (280°)9.2 mph23.0 mphClear
11:55 AM46.4 °F23.0 °F40 %30.03 in10.0 miWest (270°)17.3 mph24.2 mphClear
12:15 PM48.2 °F23.0 °F37 %30.02 in10.0 miWest (260°)20.7 mph27.6 mphClear
12:35 PM48.2 °F23.0 °F37 %30.02 in10.0 miWest (260°)20.7 mph25.3 mphClear
12:55 PM50.0 °F23.0 °F35 %30.02 in10.0 miWest (270°)15.0 mph24.2 mphClear
1:15 PM50.0 °F23.0 °F35 %30.02 in10.0 miWest (270°)19.6 mph32.2 mphClear
1:35 PM50.0 °F23.0 °F35 %30.02 in10.0 miWSW (250°)20.7 mph31.1 mphClear
1:55 PM50.0 °F23.0 °F35 %30.01 in10.0 miWNW (290°)19.6 mph26.5 mphClear
2:15 PM50.0 °F24.8 °F37 %30.02 in10.0 miWest (270°)19.6 mph29.9 mphClear
2:35 PM50.0 °F23.0 °F35 %30.02 in10.0 miWest (260°)18.4 mph32.2 mphClear
2:55 PM50.0 °F24.8 °F37 %30.02 in10.0 miWest (260°)18.4 mph27.6 mphClear
3:15 PM50.0 °F23.0 °F35 %30.03 in10.0 miWest (280°)15.0 mph26.5 mphClear
3:35 PM50.0 °F24.8 °F37 %30.04 in10.0 miWest (270°)12.7 mph25.3 mphClear
3:55 PM50.0 °F23.0 °F35 %30.05 in10.0 miWest (260°)15.0 mph28.8 mphClear
4:15 PM50.0 °F24.8 °F37 %30.05 in10.0 miWest (260°)19.6 mph25.3 mphClear
4:55 PM50.0 °F23.0 °F35 %30.05 in10.0 miWest (270°)12.7 mph23.0 mphClear
5:15 PM50.0 °F21.2 °F32 %30.05 in10.0 miWest (260°)10.4 mph19.6 mphClear
5:35 PM48.2 °F23.0 °F37 %30.06 in10.0 miWest (260°)9.2 mph16.1 mphClear
5:55 PM46.4 °F23.0 °F40 %30.06 in10.0 miWSW (250°)12.7 mph17.3 mphClear
6:15 PM46.4 °F23.0 °F40 %30.07 in10.0 miWSW (250°)10.4 mphClear
6:35 PM44.6 °F23.0 °F43 %30.07 in10.0 miWSW (250°)9.2 mphClear
6:55 PM44.6 °F23.0 °F43 %30.08 in10.0 miWSW (250°)9.2 mphClear
7:15 PM44.6 °F24.8 °F46 %30.09 in10.0 miWSW (250°)10.4 mphClear
7:35 PM42.8 °F24.8 °F49 %30.10 in10.0 miWSW (240°)9.2 mphClear
7:55 PM42.8 °F26.6 °F53 %30.10 in10.0 miSW (230°)8.1 mphClear
8:15 PM41.0 °F28.4 °F61 %30.10 in10.0 miSW (230°)9.2 mphClear
8:35 PM41.0 °F28.4 °F61 %30.11 in10.0 miSW (220°)9.2 mphClear
9:15 PM41.0 °F28.4 °F61 %30.12 in10.0 miSW (230°)9.2 mphClear
9:35 PM41.0 °F28.4 °F61 %30.13 in10.0 miSW (230°)10.4 mphClear
9:55 PM41.0 °F28.4 °F61 %30.13 in10.0 miSW (230°)10.4 mphClear
10:15 PM41.0 °F28.4 °F61 %30.14 in10.0 miSW (230°)11.5 mphClear
10:35 PM41.0 °F28.4 °F61 %30.14 in10.0 miWSW (240°)11.5 mph16.1 mphClear
10:55 PM41.0 °F28.4 °F61 %30.15 in10.0 miSW (230°)12.7 mph17.3 mphClear
11:15 PM41.0 °F28.4 °F61 %30.15 in10.0 miSW (230°)10.4 mphClear
11:35 PM41.0 °F28.4 °F61 %30.15 in10.0 miSW (220°)10.4 mph16.1 mphClear
11:55 PM39.2 °F28.4 °F65 %30.14 in10.0 miSW (220°)11.5 mph16.1 mphClear
Hourly data recorded from KEOE, located miles away from Little Mountain, South Carolina







STORIES FROM OUR PARTNERS